Flag for Honduras Weather past 2 weeks in San Pedro Sula, Honduras

Now
84 °F

Passing clouds.


Feels Like: 94 °F
Forecast: 74 / 94 °F
Wind: 12 mph from North

Location: La Mesa San Pedro Sula

Current Time: May 5, 2015 at 6:31:46 PM

Latest Report: May 5, 2015 at 6:00 PM


Visibility: N/A

Pressure: 29.86 "Hg

Humidity: 79%

Dew point: 77 °F

Location of San Pedro SulaLocation

Historic Weather in San Pedro Sula — Graph

°F

San Pedro Sula temperature yesterday

Maximum temperature yesterday: 90 °F (at 1:00 PM)
Minimum temperature yesterday: 73 °F (at 2:00 AM)
Average temperature yesterday: 81 °F

Past Weeks' High & Low Weather Summary

 TemperatureHumidityPressure
High106 °F (Apr 27, 2:00 PM)100% (Apr 20, 11:00 PM)30.01 "Hg (Apr 20, 11:00 PM)
Low73 °F (Apr 24, 4:00 AM)25% (Apr 24, 6:00 AM)29.56 "Hg (Apr 27, 3:00 PM)
Average83 °F83%29.84 "Hg
* Reported Apr 20 4:00 PM — May 5 4:00 PM, San Pedro Sula, Weather by CustomWeather, © 2015

Note: Actual official high and low records may vary slightly from our data, if they occured in-between our weather recording intervals... More about our weather records

Advertising

San Pedro Sula weather history for previous 24 hours

 ConditionsComfort  
Time TempWeatherWind HumidityBarometerVisibility
4:00 PM
Tue, May 5
88 °FPassing clouds.17 mph70%29.83 "HgN/A
3:00 PM90 °FPassing clouds.15 mph67%29.83 "HgN/A
2:00 PM91 °FPassing clouds.13 mph63%29.86 "HgN/A
1:00 PM93 °FPassing clouds.10 mph56%29.89 "HgN/A
12:00 PM90 °FPassing clouds.7 mph63%29.92 "HgN/A
11:00 AM90 °FPassing clouds.6 mph63%29.95 "HgN/A
10:00 AM86 °FPassing clouds.No wind75%29.98 "HgN/A
9:00 AM84 °FPassing clouds.No wind79%29.98 "HgN/A
8:00 AM81 °FScattered clouds.6 mph84%29.98 "HgN/A
7:00 AM75 °FScattered clouds.6 mph94%29.95 "HgN/A
6:00 AM73 °FScattered clouds.5 mph100%29.92 "HgN/A
5:00 AM73 °FPassing clouds.5 mph100%29.92 "HgN/A
4:00 AM73 °FPassing clouds.5 mph100%29.92 "HgN/A
3:00 AM73 °FPassing clouds.No wind100%29.89 "HgN/A
2:00 AM73 °FPassing clouds.No wind100%29.92 "HgN/A
1:00 AM75 °FPassing clouds.No wind100%29.92 "HgN/A
12:00 AM77 °FPassing clouds.No wind94%29.95 "HgN/A
11:00 PM
Mon, May 4
77 °FPassing clouds.2 mph94%29.98 "HgN/A
10:00 PM79 °FPassing clouds.2 mph94%29.98 "HgN/A
9:00 PM79 °FPassing clouds.5 mph89%29.95 "HgN/A
7:00 PM81 °FPassing clouds.5 mph84%29.92 "HgN/A
6:00 PM82 °FScattered clouds.13 mph79%29.89 "HgN/A
Weather by CustomWeather, © 2015

See weather overviewHow to use our weather pages